{"data":{"norad_id":66224,"intl_designator":"2025-244U","name":"STARLINK-35733","alt_names":[],"object_type":"PAYLOAD","status":"ACTIVE","operator":null,"country":"US","launch_date":"2025-10-28","launch_site_code":"AFWTR","launch_vehicle":null,"mission":null,"orbit_class":"UNKNOWN","rcs_meters":null,"size_class":null,"mass_kg":null,"dimensions":null,"purposes":["comms"],"wikipedia_slug":null,"has_3d_model":false,"image_url":null,"decayed_at":null,"tle_current":{"epoch":"2026-09-20T19:15:54.676224Z","epoch_age_seconds":70568,"freshness":"FRESH","line1":"1 66224U 25244U   26263.80271616  .00016876  00000+0  50955-3 0  9991","line2":"2 66224  53.1603  42.1071 0001836 357.0797   3.0195 15.34395417 51557","mean_motion":15.34395417,"eccentricity":0.0001836,"inclination_deg":53.1603,"raan_deg":42.1071,"arg_perigee_deg":357.0797,"mean_anomaly_deg":3.0195,"bstar":0.00050955,"rev_number":5155,"period_min":93.848038389963,"perigee_km":461.46088111379,"apogee_km":463.97284265187,"semimajor_km":6840.8538618828,"source":"CELESTRAK","updated_at":"2026-09-21T09:00:35.843283Z"}}}